Troy, AL

4:03 PM CDT on March 26, 2017 (GMT -0500)
Troy Municipal

Weather History for KTOI - January, 2014

Change the Weather History Date:

Saturday, January 18, 2014

  Actual Average Record
Temperature  
Mean Temperature 37 °F 46 °F  
Max Temperature 53 °F 58 °F 77 °F (2017)
Min Temperature 21 °F 35 °F 18 °F (2003)
Degree Days  
Heating Degree Days 28 19  
Month to date heating degree days 413 342  
Since 1 July heating degree days 1194 1259  
Moisture  
Dew Point 14 °F    
Average Humidity 48    
Maximum Humidity 81    
Minimum Humidity 15    
Precipitation  
Precipitation T in 0.13 in 0.61 in (2011)
Month to date precipitation 2.49 2.52  
Year to date precipitation 2.49 2.52  
Snow  
Snow 0.00 in - - ()
Month to date snowfall 0.0  
Since 1 July snowfall 0.0  
Snow Depth 0.00 in    
Sea Level Pressure  
Sea Level Pressure 30.19 in    
Wind  
Wind Speed 5 mph (SW)    
Max Wind Speed 14 mph    
Max Gust Speed 17 mph    
Visibility 10 miles    
Events      
T = Trace of Precipitation, MM = Missing Value Source: NWS Daily Summary

Daily Weather History Graph

Daily Weather History Graph

Search for Another Location

Airport or City:

Trip Planner

Search our weather history database for the weather conditions in past years. The results will help you decide how hot, cold, wet, or windy it might be!

Date:

Astronomy

Jan. 18, 2014 Rise Set
Actual Time 6:43 AM CST 5:05 PM CST
Civil Twilight 6:17 AM CST 5:31 PM CST
Nautical Twilight 5:47 AM CST 6:01 PM CST
Astronomical Twilight 5:18 AM CST 6:30 PM CST
Moon 7:34 PM CST (1/18) 7:54 AM CST (1/18)
Length of Visible Light 11h 14m
Length of Day
10h 21m
Waning Gibbous, 94% of the Moon is Illuminated
Jan 18
Waning Gibbous
Jan 23
Last Quarter
Jan 30
New
Feb 6
First Quarter
Feb 14
Full

Hourly Weather History & Observations

Time (CST) Temp. Windchill Dew Point Humidity Pressure Visibility Wind Dir Wind Speed Gust Speed Precip Events Conditions
12:53 AM 28.0 °F - 18.0 °F 66% 30.20 in 10.0 mi Calm Calm - N/A   Clear
1:53 AM 30.0 °F 26.5 °F 14.0 °F 51% 30.22 in 10.0 mi West 3.5 mph - N/A   Clear
2:53 AM 28.9 °F 23.9 °F 12.0 °F 49% 30.22 in 10.0 mi WNW 4.6 mph - N/A   Clear
3:53 AM 24.1 °F - 16.0 °F 71% 30.24 in 10.0 mi Calm Calm - N/A   Clear
4:53 AM 23.0 °F - 17.1 °F 78% 30.24 in 10.0 mi Calm Calm - N/A   Clear
5:53 AM 21.9 °F - 16.0 °F 78% 30.26 in 10.0 mi Calm Calm - N/A   Clear
6:53 AM 21.9 °F - 16.0 °F 78% 30.27 in 10.0 mi Calm Calm - N/A   Clear
7:53 AM 28.0 °F - 21.0 °F 75% 30.27 in 10.0 mi Calm Calm - N/A   Clear
8:53 AM 36.0 °F 32.1 °F 16.0 °F 44% 30.30 in 10.0 mi West 4.6 mph - N/A   Clear
9:53 AM 42.1 °F 35.7 °F 6.1 °F 23% 30.30 in 10.0 mi NW 11.5 mph - N/A   Clear
10:53 AM 45.0 °F 40.1 °F 5.0 °F 19% 30.29 in 10.0 mi NW 9.2 mph - N/A   Clear
11:53 AM 46.9 °F - 3.9 °F 17% 30.24 in 10.0 mi WSW 4.6 mph - N/A   Clear
12:53 PM 48.9 °F - 3.9 °F 16% 30.19 in 10.0 mi SSW 8.1 mph - N/A   Clear
1:53 PM 51.1 °F - 6.1 °F 16% 30.17 in 10.0 mi SSW 8.1 mph - 0.00 in   Clear
2:53 PM 52.0 °F - 7.0 °F 16% 30.14 in 10.0 mi SW 9.2 mph - N/A   Clear
3:53 PM 52.0 °F - 9.0 °F 18% 30.14 in 10.0 mi SSW 12.7 mph - N/A   Clear
4:53 PM 48.9 °F - 12.0 °F 23% 30.13 in 10.0 mi South 6.9 mph - N/A   Clear
5:53 PM 46.0 °F 44.8 °F 14.0 °F 28% 30.12 in 10.0 mi South 3.5 mph - N/A   Clear
6:53 PM 42.1 °F 39.2 °F 17.1 °F 37% 30.12 in 10.0 mi SSW 4.6 mph - N/A   Clear
7:53 PM 44.1 °F 38.6 °F 18.0 °F 35% 30.11 in 10.0 mi SSW 10.4 mph - N/A   Clear
8:53 PM 42.1 °F 36.1 °F 21.0 °F 43% 30.11 in 10.0 mi SSW 10.4 mph - N/A   Clear
9:53 PM 39.9 °F 33.9 °F 21.9 °F 49% 30.10 in 10.0 mi SSW 9.2 mph - N/A   Clear
10:53 PM 39.9 °F 35.8 °F 24.1 °F 53% 30.09 in 10.0 mi SW 5.8 mph - N/A   Clear
11:53 PM 39.0 °F 36.8 °F 27.0 °F 62% 30.08 in 10.0 mi SW 3.5 mph - N/A   Clear